Location: Consuma
(43.7833°N, 11.5833°E)
Time: 14:56:01
(UTC+00:00)

NOAA 6 - Pass Details

Date: 17 February 2020
Orbit: 772 x 788 km, 98.7° (Epoch: 27 March)

Event Time Altitude Azimuth Distance (km) Brightness Sun altitude
Rises 05:35:38 0° 7° (N) 3,288 7.3 -7.0°
Reaches altitude 10° 05:38:02 10° 2° (N) 2,353 6.4 -6.5°
Maximum altitude 05:42:57 45° 291° (WNW) 1,060 4.3 -5.7°
Drops below altitude 10° 05:47:50 10° 220° (SW) 2,329 6.2 -4.8°
Sets 05:50:12 0° 214° (SW) 3,250 7.0 -4.4°
